CW3806 Weather Reports


time (UTC)temp
F
wind
direction
speed
knots
gust
knots
rain 1hr
in
rain 24hr
in
rain mn
in
humidity
%
barometer
mb
20260504050604 45 206 0.0 1.7 0.00 0.00 0.00 61 1010.0
20260504050104 45 206 0.0 2.6 0.00 0.00 0.00 61 1010.0
20260504045604 45 206 0.9 2.6 0.00 0.00 0.00 61 1010.0
20260504045104 46 207 0.9 2.6 0.00 0.00 0.00 60 1010.0
20260504044104 46 207 0.0 2.6 0.00 0.00 0.00 59 1010.0
20260504043603 46 207 0.9 2.6 0.00 0.00 0.00 59 1010.0
20260504042604 47 209 0.9 4.3 0.00 0.00 0.00 59 1010.0
20260504042103 47 209 0.0 0.9 0.00 0.00 0.00 58 1010.0
20260504041603 47 209 0.0 0.9 0.00 0.00 0.00 58 1010.0
20260504041104 47 209 0.0 1.7 0.00 0.00 0.00 57 1010.2
20260504040604 48 209 0.0 1.7 0.00 0.00 0.00 57 1010.2
20260504040103 48 209 0.0 2.6 0.00 0.00 0.00 56 1010.2
20260504035604 48 209 0.0 2.6 0.00 0.00 0.00 57 1010.2
20260504035103 48 209 0.9 4.3 0.00 0.00 0.00 56 1010.2
20260504034604 48 209 0.0 4.3 0.00 0.00 0.00 57 1010.2
20260504033604 49 210 0.0 2.6 0.00 0.00 0.00 56 1010.2
20260504033104 49 210 0.0 4.3 0.00 0.00 0.00 56 1010.2
20260504032604 49 209 0.9 4.3 0.00 0.00 0.00 56 1010.2
20260504031605 49 261 0.9 1.7 0.00 0.00 0.00 56 1010.2
20260504030605 50 261 0.0 0.9 0.00 0.00 0.00 57 1010.2
20260504030106 50 261 0.0 0.9 0.00 0.00 0.00 57 1010.2
20260504025605 50 261 0.0 1.7 0.00 0.00 0.00 56 1010.2
20260504025105 50 261 0.0 1.7 0.00 0.00 0.00 55 1010.2
20260504024605 50 261 0.0 0.9 0.00 0.00 0.00 54 1010.2
20260504024105 51 261 0.0 0.9 0.00 0.00 0.00 54 1010.2
20260504023605 51 261 0.0 1.7 0.00 0.00 0.00 53 1010.2
20260504023105 51 261 0.9 1.7 0.00 0.00 0.00 53 1010.2
20260504022605 51 261 0.0 0.9 0.00 0.00 0.00 55 1010.2
20260504021605 51 261 0.0 0.9 0.00 0.00 0.00 52 1010.2
20260504021105 51 261 0.0 0.0 0.00 0.00 0.00 53 1010.2
20260504020605 51 261 0.0 1.7 0.00 0.00 0.00 51 1010.2
20260504020105 52 261 0.0 2.6 0.00 0.00 0.00 50 1010.2
20260504015605 52 261 0.0 2.6 0.00 0.00 0.00 51 1010.2
20260504014105 52 265 0.0 2.6 0.00 0.00 0.00 51 1010.1
20260504013604 52 265 0.9 5.2 0.00 0.00 0.00 49 1010.1
20260504013105 52 265 1.7 5.2 0.00 0.00 0.00 49 1010.1
20260504012105 52 275 0.9 5.2 0.00 0.00 0.00 49 1009.8
20260504011604 52 281 0.0 0.9 0.00 0.00 0.00 48 1009.8
20260504011105 52 281 0.0 1.7 0.00 0.00 0.00 48 1009.8
20260504010605 52 281 0.0 2.6 0.00 0.00 0.00 47 1009.8
20260504010105 52 281 0.9 2.6 0.00 0.00 0.00 47 1009.8
20260504005605 52 280 0.9 8.7 0.00 0.00 0.00 47 1009.8
20260504004604 52 317 5.2 10.4 0.00 0.00 0.00 48 1009.8
20260504003605 52 325 1.7 5.2 0.00 0.00 0.00 48 1009.6
20260504003105 52 348 0.0 10.4 0.00 0.00 0.00 49 1009.6
20260504002605 52 350 3.5 10.4 0.00 0.00 0.00 48 1009.6
20260504002105 52 265 1.7 10.4 0.00 0.00 0.00 50 1009.6
20260504001105 53 257 0.9 1.7 0.00 0.00 0.00 49 1009.6
20260504000605 53 257 0.0 2.6 0.00 0.00 0.00 49 1009.4
20260503235105 53 255 0.0 2.6 0.00 0.00 0.00 48 1009.4
20260503234605 53 255 0.0 2.6 0.00 0.00 0.00 48 1009.4
20260503234105 53 255 0.9 4.3 0.00 0.00 0.00 48 1009.2
20260503233605 53 255 2.6 4.3 0.00 0.00 0.00 47 1009.2
20260503233105 53 254 1.7 2.6 0.00 0.00 0.00 49 1009.2
20260503232604 53 254 0.0 6.1 0.00 0.00 0.00 48 1009.2
20260503232105 54 254 0.0 8.7 0.00 0.00 0.00 48 1009.2
20260503231604 54 250 2.6 8.7 0.00 0.00 0.00 47 1009.2
20260503231105 54 254 1.7 8.7 0.00 0.00 0.00 49 1009.2
20260503230605 54 251 0.9 4.3 0.00 0.00 0.00 48 1009.2
20260503230104 54 244 1.7 7.8 0.00 0.00 0.00 47 1009.2
20260503225605 54 249 1.7 7.8 0.00 0.00 0.00 47 1009.2
20260503225105 54 286 1.7 7.8 0.00 0.00 0.00 47 1009.2
20260503224605 54 234 2.6 7.8 0.00 0.00 0.00 47 1009.2
20260503224105 54 277 0.9 10.4 0.00 0.00 0.00 48 1009.2
20260503223605 54 337 2.6 10.4 0.00 0.00 0.00 46 1009.2
20260503223104 53 250 3.5 10.4 0.00 0.00 0.00 48 1009.2
20260503222605 53 257 0.9 10.4 0.00 0.00 0.00 48 1009.2
20260503222105 53 254 5.2 10.4 0.00 0.00 0.00 47 1009.2
20260503221105 54 245 1.7 7.0 0.00 0.00 0.00 47 1009.2
20260503220105 54 266 2.6 10.4 0.00 0.00 0.00 46 1009.2
20260503215105 54 279 3.5 10.4 0.00 0.00 0.00 45 1009.2
20260503214605 54 272 4.3 10.4 0.00 0.00 0.00 46 1009.2
20260503213604 54 261 1.7 8.7 0.00 0.00 0.00 47 1009.2
20260503213105 54 210 2.6 10.4 0.00 0.00 0.00 45 1009.2
20260503212605 54 297 2.6 11.3 0.00 0.00 0.00 44 1009.2
20260503212105 55 247 7.8 11.3 0.00 0.00 0.00 44 1009.2
20260503211105 54 269 5.2 11.3 0.00 0.00 0.00 45 1009.2
20260503210605 54 328 5.2 10.4 0.00 0.00 0.00 44 1009.2
20260503210104 54 266 1.7 10.4 0.00 0.00 0.00 46 1009.2
20260503205604 54 273 1.7 13.0 0.00 0.00 0.00 46 1009.2
20260503205105 54 284 5.2 13.0 0.00 0.00 0.00 45 1009.9
20260503204604 54 309 4.3 13.0 0.00 0.00 0.00 46 1009.9
20260503204105 54 295 5.2 13.0 0.00 0.00 0.00 45 1009.9
20260503203605 54 325 2.6 11.3 0.00 0.00 0.00 45 1009.9
20260503203105 54 319 5.2 11.3 0.00 0.00 0.00 44 1009.9
20260503202605 54 353 0.9 11.3 0.00 0.00 0.00 46 1009.9
20260503202104 54 268 4.3 10.4 0.00 0.00 0.00 45 1009.9
20260503201604 54 269 2.6 8.7 0.00 0.00 0.00 46 1009.9
20260503201105 53 340 1.7 8.7 0.00 0.00 0.00 46 1009.9
20260503200605 53 314 5.2 10.4 0.00 0.00 0.00 46 1009.9
20260503195605 52 308 3.5 13.0 0.00 0.00 0.00 48 1009.9
20260503195105 52 264 4.3 13.0 0.00 0.00 0.00 47 1009.9
20260503194105 53 132 4.3 15.6 0.00 0.00 0.00 46 1010.5
20260503193604 54 304 7.0 19.1 0.00 0.00 0.00 44 1010.5
20260503193105 54 294 7.8 19.1 0.00 0.00 0.00 44 1010.5
20260503192605 54 300 4.3 19.1 0.00 0.00 0.00 47 1010.5
20260503192104 54 340 6.1 15.6 0.00 0.00 0.00 47 1010.5
20260503191604 53 344 4.3 15.6 0.00 0.00 0.00 47 1010.5
20260503191105 52 338 7.8 17.4 0.00 0.00 0.00 47 1010.5
20260503190605 52 289 6.1 17.4 0.00 0.00 0.00 45 1010.5
20260503190105 52 317 6.1 17.4 0.00 0.00 0.00 45 1010.5
20260503185604 53 260 3.5 13.9 0.00 0.00 0.00 45 1010.5
20260503185104 53 305 6.1 13.9 0.00 0.00 0.00 44 1010.5
20260503184105 53 292 2.6 10.4 0.00 0.00 0.00 45 1010.5
20260503183605 53 283 3.5 13.9 0.00 0.00 0.00 43 1010.5
20260503183104 53 267 6.1 17.4 0.00 0.00 0.00 43 1010.5
20260503182604 53 259 7.8 17.4 0.00 0.00 0.00 44 1010.5
20260503182104 53 260 10.4 17.4 0.00 0.00 0.00 43 1010.5
20260503181105 53 358 5.2 13.0 0.00 0.00 0.00 44 1010.5
20260503180605 54 347 8.7 13.0 0.00 0.00 0.00 40 1010.5
20260503175605 54 297 4.3 12.2 0.00 0.00 0.00 41 1010.5
20260503175105 55 8 2.6 10.4 0.00 0.00 0.00 43 1010.8
20260503174605 54 343 2.6 10.4 0.00 0.00 0.00 46 1010.8
20260503174105 52 249 0.9 12.2 0.00 0.00 0.00 46 1010.8
20260503173605 53 262 5.2 13.0 0.00 0.00 0.00 43 1010.8
20260503173104 52 296 6.1 13.0 0.00 0.00 0.00 43 1010.8
20260503172605 53 256 6.1 13.0 0.00 0.00 0.00 41 1010.8
20260503172105 53 278 2.6 13.0 0.00 0.00 0.00 42 1012.1
20260503171605 52 252 1.7 13.0 0.00 0.00 0.00 44 1012.1
20260503171105 52 304 4.3 11.3 0.00 0.00 0.00 42 1012.1
20260503170604 52 323 6.1 11.3 0.00 0.00 0.00 43 1012.1
20260503160105 50 326 2.6 12.2 0.00 0.00 0.00 53 1012.1
20260503150104 48 347 3.5 13.0 0.00 0.00 0.00 49 1012.4
20260503140105 45 307 5.2 13.9 0.00 0.00 0.00 53 1012.4
20260503131105 43 332 5.2 13.9 0.00 0.00 0.00 56 1012.4
20260503130604 42 324 4.3 19.1 0.00 0.00 0.00 56 1012.4
20260503130105 42 321 11.3 19.1 0.00 0.00 0.00 58 1012.4
20260503120104 36 300 1.7 10.4 0.00 0.00 0.00 80 1011.6
20260503110604 34 301 0.9 2.6 0.00 0.00 0.00 84 1011.6
20260503100105 35 265 0.9 6.1 0.00 0.00 0.00 82 1011.5
20260503090104 35 329 1.7 7.0 0.00 0.00 0.00 81 1011.3
20260503081604 35 322 0.0 2.6 0.00 0.00 0.00 82 1011.3
20260503081104 35 322 0.9 2.6 0.00 0.00 0.00 82 1011.3
20260503080605 35 331 0.0 2.6 0.00 0.00 0.00 82 1011.3
20260503080104 35 331 1.7 2.6 0.00 0.00 0.00 82 1011.3
20260503072605 35 335 0.0 5.2 0.00 0.00 0.00 81 1011.3
20260503072105 35 334 1.7 5.2 0.00 0.00 0.00 81 1011.3
20260503071605 35 325 1.7 7.0 0.00 0.00 0.00 82 1011.3
20260503071105 35 317 1.7 7.0 0.00 0.00 0.00 82 1011.3
20260503070104 35 332 0.9 5.2 0.00 0.00 0.00 81 1011.3
20260503055104 35 338 0.0 1.7 0.00 0.00 0.00 81 1012.2
20260503054605 35 338 0.9 2.6 0.00 0.00 0.00 80 1012.2
20260503054105 35 338 0.0 2.6 0.00 0.00 0.00 80 1012.2
20260503053605 35 338 0.0 2.6 0.00 0.00 0.00 79 1012.2
20260503053105 35 338 0.9 2.6 0.00 0.00 0.00 79 1012.2